Preview of NWS' New Version of Forecast
This preview is not operational and should not be used for support decisions.

Regional Weather Roundup (RWR)

Issued by National Weather Service (NWS)

                            
000
ASUS45 KCYS 170710
RWRWY 

WYOMING REGIONAL WEATHER ROUNDUP
NATIONAL WEATHER SERVICE CHEYENNE WY
1200 AM MST SUN FEB 17 2019

NOTE:  "FAIR" INDICATES FEW OR NO CLOUDS BELOW 12,000 FEET
WITH NO SIGNIFICANT WEATHER AND/OR OBSTRUCTIONS TO VISIBILITY.

WYZ001-170800-
YELLOWSTONE NATIONAL PARK
  
CITY           SKY/WX    TMP DP  RH WIND       PRES   REMARKS
LK YELLOWSTONE   N/A      6   2  83 CALM      29.69F                  
W YELLOWSTONE  NOT AVBL                                               

$$
WYZ002>013-054>058-071-098>099-170800-
NORTHERN WYOMING
  
CITY           SKY/WX    TMP DP  RH WIND       PRES   REMARKS
JACKSON        FLURRIES  12   9  87 CALM      29.73S                  
CODY           MOCLDY     9   7  92 N7        29.77R WCI  -2          
GREYBULL       FLURRIES  18  12  77 NW8       29.80R WCI   8          
WORLAND        FAIR      19  13  77 N7        29.77R WCI  10          
SHERIDAN       LGT SNOW   8   4  83 NW14      29.89R FOG     WCI  -8  
BUFFALO        LGT SNOW   8   3  80 N16       29.77R WCI -10          
GILLETTE       CLOUDY     7   3  84 NW12      29.81R WCI  -8          
HULETT         LGT SNOW   3  -2  78 MISG      29.82R                  
NEWCASTLE        N/A      7   0  72 NW21G26   29.76  WCI -13          

$$
WYZ014>020-022>026-101>103-170800-
CENTRAL WYOMING
  
CITY           SKY/WX    TMP DP  RH WIND       PRES   REMARKS
BIG PINEY      FAIR      -7 -11  83 E3        29.73S                  
PINEDALE       FAIR      -9 -15  77 NW6       29.74  WCI -23          
DUBOIS         CLOUDY     9   1  72 NW9       29.68  WCI  -5          
LANDER         FAIR      17   4  56 CALM      29.71R                  
RIVERTON       CLOUDY    21  14  74 NE3       29.72R                  
CASPER         CLOUDY    17  15  92 N6        29.73R WCI   9          
DOUGLAS        LGT SNOW  18  14  84 NW15      29.74R FOG     WCI   4  

$$
WYZ021-027>030-104>119-170800-
SOUTHERN WYOMING
  
CITY           SKY/WX    TMP DP  RH WIND       PRES   REMARKS
EVANSTON       MOCLDY    11   5  77 S8        29.74S WCI  -1          
KEMMERER       FAIR      12   7  79 CALM      29.73S                  
FORT BRIDGER   SUNNY     10   1  67 NE10      29.77S WCI  -3          
ROCK SPRINGS   FAIR      13   5  70 W21       29.73F WCI  -5          
DIXON          CLOUDY    11   4  74 NE5       29.80S WCI   3          
RAWLINS        FAIR      16   9  74 W16       29.71R WCI   1          
SARATOGA       PTSUNNY   18  10  73 SW17G24   29.71R WCI   2          
LARAMIE        FAIR      13   5  70 W12       29.64S WCI  -1          
CHEYENNE       FAIR      20   9  62 NW12      29.66S WCI   8          
TORRINGTON     CLOUDY    24  17  74 N7        29.74R WCI  16          
PINE BLUFFS    CLOUDY    19  18  93 W6        29.72R WCI  11          

$$